Vorticity
7 8 13 2 3 5 7 9 6 6 -0 -0 7 12 5 2 10 8 8 6 4 6 7 5 6 8 8 7 7 6 7 6 2 5 6 5 6 2 -0 1 3 2 8 7 7 8 3 8 6 3 7 6 5 5 5 6 7 6 5 5 5 6 6 6 6 5 5 6 6 5 5 5 5 5 6 6 6 6 6 6 6 6 6 6 6 7 6 5 5 5 5 6 5 6 8 8 7
5 8 8 2 4 4 7 -1 -1 12 4 5 7 6 6 4 12 12 7 7 8 6 4 6 7 8 8 7 7 5 6 7 5 6 5 6 5 2 2 1 3 6 9 9 8 7 5 7 5 5 6 5 5 5 5 6 7 6 5 5 7 6 6 6 5 6 6 7 6 6 6 6 6 6 6 6 6 6 6 5 5 6 6 5 4 5 5 5 4 4 5 5 6 6 7 7 7
5 7 3 4 8 4 8 -8 -3 26 12 2 6 4 6 7 10 11 9 9 10 8 5 10 10 9 9 6 5 4 6 7 6 7 5 6 6 5 4 1 5 8 8 11 8 5 7 6 6 5 4 5 5 4 6 7 6 5 5 6 6 6 6 6 7 8 7 7 7 7 7 7 7 6 6 6 6 6 5 5 5 5 5 4 4 4 3 4 3 3 4 4 5 6 6 5 4
5 6 4 4 9 3 8 -3 -10 15 12 2 6 6 6 7 9 10 11 8 10 8 5 9 9 8 7 5 3 3 5 7 6 6 7 3 5 8 6 3 6 8 10 10 5 4 7 7 6 5 4 5 5 6 7 6 6 5 7 7 5 6 7 7 8 8 7 8 8 7 7 8 7 6 6 5 5 5 5 5 5 5 5 5 5 5 5 5 5 5 4 5 5 5 6 5 6
4 6 9 5 9 3 -0 3 1 5 8 7 3 7 7 6 9 9 10 7 9 7 3 4 6 8 4 4 4 3 5 7 5 6 7 1 5 10 7 6 6 9 10 7 5 5 7 7 5 5 5 4 6 7 7 6 6 6 7 6 6 8 8 8 8 7 8 7 6 7 8 8 8 8 8 7 6 6 6 5 5 6 6 6 6 6 7 7 6 6 5 5 5 5 6 7 11
6 6 8 3 7 7 -5 -4 10 9 5 7 3 6 8 5 7 9 9 6 8 6 4 4 3 5 5 5 3 3 7 6 4 7 8 3 7 11 9 8 8 9 8 6 6 5 5 6 5 5 4 4 7 7 6 6 6 7 7 6 8 9 9 8 8 7 6 6 6 6 7 7 7 8 8 8 9 9 8 7 6 6 6 6 6 6 6 6 7 7 6 5 5 5 6 8 10
7 5 5 5 6 5 2 2 8 8 3 6 5 6 6 6 6 8 10 7 9 6 4 8 3 1 4 3 -1 1 6 5 4 6 8 5 8 11 10 9 7 8 7 4 5 4 5 5 6 6 4 5 7 7 6 6 8 8 7 9 10 9 9 7 7 6 5 5 6 6 7 7 6 6 7 9 9 10 11 10 9 7 6 6 5 6 6 6 6 6 6 6 5 5 4 6 8
3 3 6 4 5 -0 1 7 4 5 6 5 4 4 6 6 6 6 10 9 10 7 3 8 5 4 6 3 2 3 5 5 4 6 8 8 9 10 9 8 5 6 6 3 5 5 4 5 6 6 5 7 7 7 6 7 9 7 8 10 10 9 8 7 6 6 6 6 7 7 7 7 8 9 9 10 11 11 11 12 12 9 7 6 5 6 7 6 6 6 6 6 6 6 5 5 6
2 1 5 1 9 8 2 6 3 6 6 5 5 4 5 5 6 5 6 8 8 8 6 4 1 4 7 4 4 4 4 5 4 5 8 9 10 8 6 7 5 5 6 4 6 5 4 6 7 6 6 8 7 6 7 9 8 8 10 10 9 9 7 7 7 7 8 9 9 8 8 9 10 11 11 11 11 12 12 12 11 11 10 8 7 6 7 7 7 7 7 8 7 7 7 6 5
4 1 4 1 8 8 0 5 5 5 3 4 5 3 6 4 6 5 4 5 5 7 4 1 -0 3 6 5 5 5 5 5 5 5 5 8 8 5 3 5 5 5 5 5 6 5 7 8 6 6 8 8 7 7 8 8 8 8 9 9 8 7 8 9 9 11 11 10 10 9 8 9 9 10 11 11 11 12 13 12 11 11 11 10 8 6 7 7 7 8 7 8 8 8 8 8 7
3 1 4 -1 8 12 1 4 7 6 4 5 4 4 7 5 6 6 6 5 5 6 3 6 8 5 3 4 5 5 7 7 6 6 5 6 5 3 4 4 4 4 5 7 8 7 8 7 6 7 9 9 7 7 9 8 8 9 8 7 7 8 10 11 11 11 11 10 9 8 8 7 8 9 10 11 11 11 11 12 12 11 10 10 9 9 10 10 11 10 11 11 10 10 9 9 9
1 2 5 -8 3 17 5 2 6 6 6 4 4 4 4 5 6 6 8 8 7 6 6 10 9 4 4 5 6 5 7 6 4 5 5 5 4 3 4 4 3 4 6 9 10 8 8 6 6 9 9 8 6 8 9 9 9 9 7 6 7 10 10 10 10 10 10 10 8 7 7 7 7 8 9 10 10 10 10 11 11 11 11 12 12 12 12 12 13 13 15 16 17 15 12 10 10
3 2 5 -6 -2 7 2 4 5 6 7 3 3 4 3 4 5 6 8 7 7 8 7 6 1 4 8 6 6 7 7 7 5 4 4 4 4 3 3 2 3 4 7 11 11 8 8 6 7 10 9 7 7 9 9 8 9 8 6 6 9 10 9 9 9 10 10 9 8 7 7 7 8 8 8 9 10 11 12 13 12 12 11 10 10 10 10 11 12 14 14 15 18 18 16 14 12
5 1 3 1 2 4 3 8 7 4 6 4 5 6 5 5 3 4 5 6 9 7 6 6 4 7 9 5 4 6 8 9 5 2 3 2 3 3 1 1 3 4 7 12 11 8 7 6 9 11 9 7 7 9 9 8 8 7 6 7 9 8 7 7 8 8 9 9 8 8 9 10 10 9 9 9 10 10 11 11 10 9 7 7 7 8 10 10 9 10 11 11 13 15 17 16 15
4 2 3 1 3 8 4 3 7 5 6 6 6 8 6 5 2 2 5 6 8 5 5 8 6 5 7 7 4 3 7 10 7 3 1 0 3 3 0 1 2 2 6 12 11 7 7 7 10 11 8 6 8 10 8 8 8 7 6 8 9 7 6 6 7 7 7 8 8 8 9 9 9 7 6 6 6 7 7 7 7 6 6 5 5 6 6 7 6 6 7 8 8 9 11 13 14
4 2 4 7 7 12 5 -2 3 3 4 6 6 10 7 7 6 5 6 3 4 7 8 6 7 7 6 8 7 4 4 9 9 5 1 -0 2 2 1 1 2 2 5 11 11 7 7 8 10 11 8 7 9 11 7 8 8 5 6 9 8 6 6 6 6 7 6 6 6 6 5 5 6 5 4 4 4 4 4 4 4 4 4 4 3 3 4 4 4 4 4 5 6 7 7 8 10
5 3 4 9 2 7 11 2 5 2 1 6 6 10 7 7 9 6 6 3 4 8 7 6 7 7 6 9 10 6 3 6 10 6 2 3 2 1 2 1 3 4 5 11 11 8 8 8 9 9 8 8 11 10 7 8 7 6 8 9 7 5 5 6 6 6 5 5 3 3 4 3 2 3 4 3 3 3 3 3 3 3 3 3 4 3 4 5 4 4 4 4 4 4 5 6 6
3 3 2 3 -8 0 13 1 3 2 0 7 6 8 7 5 9 9 9 6 6 7 5 6 7 7 8 8 9 8 4 4 8 8 5 5 4 3 2 1 4 4 6 11 10 9 8 7 9 9 8 10 12 9 7 8 6 7 8 8 6 5 5 5 6 5 5 4 2 3 4 3 2 2 3 2 3 3 4 4 4 5 4 5 6 5 5 6 6 6 6 5 4 4 4 5 5
2 2 3 5 -9 -5 10 1 1 2 -1 4 4 6 6 3 7 9 10 8 8 7 4 5 6 7 8 7 8 10 7 3 4 8 10 10 6 3 2 2 5 4 6 10 8 9 9 8 9 8 9 12 12 7 7 8 7 8 8 7 6 5 6 5 5 5 4 4 3 5 5 4 5 4 4 4 4 4 5 5 5 5 6 6 6 6 6 6 7 6 7 7 5 7 6 6 5
1 -0 3 5 -0 -1 7 5 3 5 2 2 4 7 7 5 4 7 9 9 9 9 6 7 7 7 8 7 7 10 9 4 1 4 10 14 7 2 2 3 7 5 7 9 6 8 9 8 9 8 10 13 10 7 7 8 7 9 8 6 6 5 5 5 5 4 4 3 4 5 4 4 5 4 5 5 4 5 5 5 5 5 6 5 4 5 5 5 5 5 5 5 8 7 5 7 8
-0 2 2 -5 4 9 3 3 3 5 5 3 4 8 9 7 5 7 10 10 9 8 9 9 7 6 8 8 5 7 9 6 3 2 5 10 5 1 1 3 8 6 7 9 6 8 11 9 8 9 11 12 9 6 8 8 8 9 7 6 6 5 5 4 4 4 4 4 3 4 4 4 4 5 5 5 4 5 4 4 4 4 6 5 4 4 5 4 3 5 5 2 8 7 4 8 8
-1 3 1 -14 -5 6 1 4 5 4 6 6 5 5 7 7 9 10 8 9 8 7 10 13 10 7 8 8 5 5 8 6 7 5 2 6 4 0 1 3 9 6 6 10 6 7 11 11 9 9 11 10 8 7 8 8 9 8 5 5 5 4 5 4 4 3 3 4 4 4 4 4 4 5 5 5 5 4 4 4 4 5 6 3 4 5 4 4 3 6 7 3 5 6 6 9 7
1 -0 2 -3 -2 2 3 6 5 5 6 7 7 6 7 7 10 10 7 9 7 5 11 14 13 10 7 8 7 6 8 5 6 7 4 4 4 2 2 5 10 7 6 9 6 7 10 11 9 9 11 9 7 7 8 8 9 7 5 5 5 4 5 4 4 3 3 3 4 5 5 5 5 4 4 4 4 4 4 5 5 5 5 4 5 5 2 3 5 5 8 7 5 5 7 7 7
4 1 1 4 5 3 3 5 5 5 4 7 9 8 8 8 9 9 9 10 6 4 8 9 11 13 9 7 8 7 8 6 3 6 7 7 7 7 6 8 11 6 7 8 5 7 10 10 9 9 10 8 7 7 7 9 8 6 5 5 4 4 4 4 4 3 4 4 4 5 5 5 5 5 5 4 4 4 4 4 5 4 5 6 5 5 4 5 6 5 7 5 4 6 6 5 6
6 4 3 5 7 6 4 5 5 5 4 6 8 8 8 7 9 10 10 10 5 4 7 7 9 12 8 4 7 6 6 9 6 4 6 7 6 6 7 9 11 7 7 7 5 8 10 9 8 9 10 8 7 6 7 9 8 5 5 5 5 4 4 4 4 3 4 4 5 5 5 5 5 5 5 5 5 5 5 5 5 6 6 6 5 5 6 5 5 6 5 3 4 5 4 5 6
6 5 4 6 7 6 5 5 6 5 4 3 4 9 9 7 10 10 9 11 7 7 9 6 6 9 7 6 9 7 7 11 12 8 5 5 5 5 6 8 9 7 8 6 5 9 10 8 8 10 11 9 7 6 7 8 7 5 5 5 5 4 4 3 3 4 4 4 5 5 5 5 4 5 5 5 5 5 5 5 4 5 5 5 5 5 5 5 5 5 5 4 5 5 3 3 4
7 7 5 7 8 6 4 6 6 4 3 3 6 10 8 7 11 10 11 14 9 10 11 5 6 9 8 9 9 7 8 10 13 13 9 7 7 6 6 9 9 7 8 6 5 9 9 7 8 12 12 8 7 6 7 8 7 6 5 5 5 4 3 3 3 3 5 5 5 5 5 5 5 5 5 4 5 5 4 4 3 3 3 4 5 4 5 5 5 6 6 4 4 4 4 3 4
3 6 7 9 10 6 4 5 5 4 4 4 7 8 6 6 9 8 9 14 10 9 11 7 7 9 8 9 8 8 6 7 11 13 12 8 8 7 7 10 11 8 8 6 5 8 8 6 8 11 12 8 6 6 8 8 6 6 6 6 5 4 3 2 3 3 4 6 6 6 5 4 5 5 5 5 5 5 4 3 4 4 4 5 5 5 5 5 6 5 5 5 4 3 4 5 5
1 1 5 10 10 7 6 6 3 4 4 5 7 6 6 6 8 7 3 8 10 9 10 8 7 8 9 10 10 10 6 5 8 9 11 10 10 9 8 13 12 9 8 6 6 8 7 6 7 10 11 8 6 6 8 8 6 6 7 7 5 4 3 2 3 4 5 6 6 6 6 4 5 6 5 5 5 5 5 5 5 5 5 5 5 5 5 6 6 5 5 5 4 4 5 6 6
6 2 3 8 8 8 9 5 3 4 3 6 7 4 10 11 8 9 5 5 8 8 9 8 9 8 9 12 11 9 6 7 7 6 7 9 10 9 10 15 13 9 8 5 6 9 8 6 6 10 10 8 6 5 7 8 6 6 6 6 6 3 3 3 3 4 5 5 6 6 6 5 5 6 5 5 6 6 5 5 4 4 4 4 4 5 6 7 6 6 7 5 4 5 6 6 5
9 5 4 8 5 5 8 5 2 5 4 4 6 3 10 13 7 8 7 4 4 6 8 7 10 11 10 11 9 7 7 8 8 6 6 7 9 8 12 15 12 11 8 6 7 8 6 5 6 9 9 9 7 6 7 8 6 6 6 6 6 4 3 4 4 4 5 5 6 7 6 6 6 6 5 5 5 5 4 3 3 4 4 5 6 6 7 7 7 8 8 7 7 6 6 7 6
11 5 4 10 8 2 3 9 5 3 4 2 4 2 2 8 12 11 5 4 7 8 9 8 9 9 9 11 10 9 9 7 8 7 5 7 9 9 14 15 11 11 8 6 8 8 6 5 5 7 8 9 8 7 7 8 7 6 6 6 5 5 3 4 4 4 5 6 6 7 7 7 6 6 6 6 5 3 3 3 4 6 6 7 7 8 8 9 10 9 9 9 8 6 6 8 8
11 6 5 9 11 3 -1 16 15 5 4 2 5 3 -2 2 8 9 6 8 9 8 8 8 9 8 6 9 10 11 12 9 9 9 8 7 8 10 14 14 12 11 8 6 7 8 7 5 5 7 7 8 8 8 8 7 8 7 6 6 4 4 4 4 4 4 5 6 6 6 7 6 6 7 6 5 4 3 4 5 5 6 7 8 9 9 9 11 12 11 10 9 10 8 7 8 8
9 7 9 8 11 6 -2 12 18 9 3 3 7 3 -2 1 5 6 5 8 8 5 7 8 9 6 4 6 6 10 13 10 12 14 13 9 7 11 12 13 13 9 7 6 6 7 8 7 6 7 7 9 9 8 8 8 7 6 5 5 4 4 4 4 4 4 5 5 6 6 6 7 6 6 6 4 4 5 5 5 7 8 8 8 9 10 12 14 13 11 10 10 10 10 9 10 9
7 3 8 8 9 9 -0 1 13 13 1 -2 6 4 -1 -0 6 11 6 6 8 5 5 6 7 6 7 11 9 10 11 10 13 15 15 10 7 10 10 13 13 8 7 6 5 6 8 9 8 8 8 9 10 9 8 8 6 5 5 4 4 4 3 4 4 4 5 5 6 7 6 7 7 5 5 4 5 5 5 6 8 9 9 8 8 10 13 15 14 13 11 10 10 10 11 12 11
7 1 3 6 6 8 4 -1 7 16 6 -1 2 2 3 -0 -1 8 9 9 7 4 6 5 6 8 8 10 9 9 9 9 12 14 14 9 8 9 9 15 13 7 8 6 4 5 7 10 8 8 9 8 9 9 8 8 7 6 5 4 4 4 4 3 4 4 4 5 6 7 7 7 6 5 4 4 5 5 5 6 7 8 7 7 7 8 12 13 14 13 12 11 10 10 11 11 10
7 5 3 6 5 5 8 4 1 10 9 3 3 -0 4 8 -1 -4 5 11 6 3 7 4 4 8 5 6 7 6 8 10 11 13 13 8 8 9 9 15 13 6 8 6 3 4 6 8 8 7 8 8 7 7 8 7 6 6 5 5 4 4 5 5 5 4 4 5 6 7 7 6 5 4 3 3 4 4 5 6 7 7 6 6 6 6 9 10 9 9 8 8 8 7 8 8 7
6 6 7 9 8 5 10 10 1 8 11 0 5 6 1 6 5 2 7 12 10 5 4 3 3 6 5 5 4 3 8 11 10 11 10 7 7 8 9 13 12 8 7 6 4 3 5 7 8 7 6 7 7 7 6 6 6 5 4 4 4 4 6 6 5 5 5 5 7 8 7 6 5 3 3 3 4 5 5 7 7 6 5 5 6 6 6 6 5 5 4 5 6 7 7 7 7
5 4 7 7 9 8 9 13 7 11 14 0 2 7 1 1 4 12 12 4 7 5 3 6 4 4 5 3 1 2 7 10 10 12 8 6 7 7 9 11 11 9 7 6 6 4 5 6 6 7 7 6 7 6 6 6 6 5 5 5 5 5 6 6 6 6 6 7 8 9 8 7 5 4 4 4 5 6 6 7 7 5 5 6 6 6 6 4 4 4 5 6 8 8 7 6 6
7 7 10 6 8 9 5 9 7 9 13 4 3 3 2 5 5 9 8 -0 4 6 6 8 2 3 6 1 1 3 5 7 11 11 8 7 7 6 9 10 10 9 7 7 7 5 5 5 5 6 8 7 6 6 6 6 6 6 6 6 5 6 6 5 6 5 6 8 9 10 9 8 6 4 4 5 6 7 7 7 6 5 5 6 7 7 7 5 5 5 6 8 8 7 6 5 6
8 10 11 6 5 7 6 5 10 20 17 3 2 4 1 1 4 10 10 9 10 3 3 6 -3 -0 7 2 1 6 6 7 10 10 7 7 5 6 9 10 10 8 6 7 7 6 5 4 5 5 7 7 7 7 5 5 6 6 6 6 6 6 6 5 5 6 8 10 10 10 10 8 6 5 4 5 6 7 8 7 6 6 5 6 7 7 8 7 6 6 7 7 6 6 6 7 7
8 9 9 8 2 2 3 -3 4 19 21 10 0 2 6 2 5 11 7 10 13 4 1 4 0 -1 4 4 3 9 10 7 11 11 7 7 7 7 8 8 11 8 6 7 6 6 6 4 5 6 6 7 7 7 7 6 6 6 5 6 6 6 5 5 5 6 8 9 9 9 9 7 5 5 4 4 4 6 8 7 7 6 5 6 6 7 9 8 6 6 6 6 7 8 8 6 6
7 7 7 9 4 3 -1 -12 -7 4 18 28 12 -2 2 1 5 9 6 5 3 8 10 3 5 4 1 5 5 7 11 8 10 11 8 9 8 8 8 7 9 9 6 6 6 6 6 5 5 6 7 6 7 8 8 8 7 7 6 5 6 6 6 6 6 6 8 8 7 7 6 6 5 4 3 3 3 4 7 8 8 7 6 6 6 6 9 8 6 5 6 7 9 9 7 4 4
8 6 5 9 6 6 2 -10 -10 -14 -10 13 19 15 9 3 7 5 9 14 1 10 22 6 3 7 1 6 6 3 8 10 10 10 9 10 8 7 9 8 8 9 6 5 7 7 7 7 6 7 8 7 7 8 8 8 7 6 6 6 7 7 6 7 6 6 7 6 5 5 4 4 5 5 4 3 3 4 5 7 9 8 7 6 5 6 9 9 6 5 5 7 9 7 3 4 6
9 12 9 9 6 7 7 -1 -4 -12 -17 -7 2 10 14 22 32 11 1 13 3 5 23 11 0 3 1 5 7 4 6 9 9 10 10 8 7 7 9 11 9 8 7 5 6 8 9 9 8 7 9 8 7 8 7 7 7 6 6 7 7 7 7 7 7 6 6 5 4 4 4 4 5 5 6 4 4 4 4 5 8 9 8 7 6 5 8 8 5 4 4 6 8 3 1 5 8
13 15 12 9 7 7 7 5 5 1 1 3 -3 -7 -5 14 32 18 1 2 -4 2 19 13 -1 2 10 8 6 5 5 8 9 9 12 9 8 8 8 11 9 6 7 5 5 10 12 9 8 9 10 9 7 7 6 6 7 6 6 7 7 7 7 6 6 6 5 5 4 3 3 3 3 4 6 5 3 4 4 4 7 9 9 9 6 5 8 8 5 4 3 5 6 2 3 6 8
14 12 9 8 9 8 6 9 9 2 0 4 7 1 -11 -6 8 8 7 3 -5 -1 12 13 2 6 14 5 2 8 7 9 10 7 9 10 8 8 9 11 11 7 5 6 6 9 13 11 8 9 9 8 8 6 6 6 6 6 6 7 8 7 6 6 5 6 5 5 4 4 3 2 2 3 5 5 4 4 5 4 5 8 9 9 7 5 7 7 6 4 3 4 5 3 5 8 9
11 11 8 8 11 9 6 9 6 1 4 3 5 6 -5 1 15 11 9 12 6 -2 5 18 14 10 12 4 2 9 6 7 9 6 7 8 9 10 10 9 11 11 6 6 7 8 12 13 9 9 8 8 8 6 6 5 5 6 6 7 8 7 7 6 5 5 5 5 5 5 4 4 3 4 5 5 5 5 5 4 4 6 9 10 7 5 7 8 7 5 3 3 5 4 5 9 10
4 7 9 12 14 9 4 5 -2 -4 9 11 5 3 -5 -3 12 16 15 16 12 3 6 18 15 9 12 9 4 5 5 8 8 7 6 6 9 12 11 8 8 13 11 7 7 7 10 12 11 10 8 8 8 6 6 5 4 5 6 7 7 8 7 6 5 5 5 5 6 6 5 5 5 4 5 5 5 5 6 4 3 4 8 10 10 7 6 8 7 6 5 4 4 5 6 10 11
4 2 4 12 14 10 6 4 1 0 8 12 9 2 -1 3 6 14 24 22 19 16 11 14 14 7 8 12 10 3 2 7 7 6 5 5 9 12 11 9 6 9 13 10 8 7 8 10 10 9 8 7 7 7 5 5 5 4 5 6 6 7 7 5 5 4 5 5 5 6 5 5 5 5 6 6 6 6 6 5 3 3 5 9 12 10 7 7 7 6 5 4 4 5 7 10 11
7 5 1 7 13 12 11 5 0 4 5 7 13 5 2 14 12 10 20 21 25 29 18 16 18 3 -5 9 17 5 -1 6 8 6 6 5 8 11 11 10 7 7 11 11 8 7 7 8 8 7 6 6 6 7 6 5 5 5 5 5 5 6 6 5 5 4 4 4 4 5 5 5 5 5 6 7 6 6 6 5 3 2 3 5 11 13 10 7 6 6 5 4 5 5 7 11 10
4 6 2 5 14 11 10 10 5 8 11 5 7 4 2 13 16 18 20 9 12 25 20 19 24 6 -10 -1 11 8 4 9 10 7 6 6 6 8 10 11 8 6 8 10 9 9 9 8 8 7 6 6 6 6 6 5 4 5 5 6 6 8 7 6 7 6 5 6 6 6 5 5 4 4 6 7 7 7 6 5 3 2 2 3 6 11 13 10 6 5 5 4 5 5 7 11 10
6 4 2 5 14 11 5 9 6 6 15 11 1 1 9 12 11 17 23 16 17 24 17 14 20 15 2 -4 -1 5 8 9 11 9 6 6 6 5 8 10 9 8 8 10 11 11 12 10 9 8 6 6 7 6 5 5 5 5 6 7 8 9 8 8 7 7 7 8 8 8 7 6 5 5 6 7 8 8 7 5 4 3 2 1 3 7 11 14 10 6 4 4 5 5 7 10 10
11 5 6 8 7 8 7 5 4 2 5 10 3 -4 4 10 7 12 19 20 23 20 12 11 14 14 12 3 -5 -1 6 9 11 9 4 4 5 3 6 9 9 9 8 8 10 10 10 11 9 9 8 7 8 7 6 6 7 7 7 8 10 10 9 8 6 5 5 7 7 8 8 8 7 6 5 5 6 7 8 7 5 4 3 1 2 3 7 12 14 10 5 4 4 5 6 10 11
9 7 7 13 6 3 9 6 6 9 5 7 8 -1 1 7 11 21 20 10 14 14 7 8 9 12 17 11 -2 -3 5 9 10 7 2 4 8 6 7 10 9 10 8 7 8 8 8 9 8 8 8 8 8 8 9 9 8 8 8 7 8 8 8 7 6 5 5 6 5 5 6 7 7 7 6 5 5 5 6 7 5 4 4 2 1 2 3 6 12 14 9 4 4 5 6 9 11
2 6 4 11 12 4 8 9 5 8 5 5 11 13 13 6 -1 12 19 13 18 18 12 11 10 14 20 13 1 -1 3 7 13 14 5 3 11 9 6 8 9 9 8 7 7 7 7 7 7 6 6 7 8 8 8 8 7 7 7 7 6 6 6 6 6 6 5 4 4 4 4 4 5 6 6 6 5 5 5 5 6 5 5 4 2 2 2 2 6 13 14 9 3 4 6 7 10
-4 4 5 5 12 7 6 12 9 6 4 1 6 15 22 20 10 10 14 15 16 11 10 16 14 15 19 12 2 3 9 10 11 12 6 4 10 10 6 7 9 9 8 7 6 7 7 6 5 5 6 6 7 7 6 6 7 7 6 6 6 5 5 5 5 5 4 4 4 3 3 3 3 4 4 5 5 5 5 5 6 5 6 6 3 2 2 1 2 7 13 14 8 4 5 6 8
1 2 8 1 6 9 4 8 10 9 8 2 -3 -5 3 21 25 16 13 16 17 9 6 10 11 15 20 14 2 -4 4 13 10 3 3 6 8 9 9 8 8 11 11 9 7 7 7 6 6 7 7 7 7 5 5 5 6 6 6 5 5 4 5 5 5 5 6 7 7 7 7 7 7 7 6 5 5 5 6 5 6 6 6 6 5 4 3 2 2 3 7 13 12 6 4 5 7
Height
5894 5894 5894 5895 5895 5895 5896 5895 5895 5895 5894 5894 5894 5894 5893 5894 5895 5895 5895 5894 5894 5895 5895 5895 5895 5894 5895 5895 5895 5895 5895 5896 5896 5896 5895 5895 5895 5896 5897 5898 5898 5898 5898 5899 5899 5900 5900 5901 5901 5901 5900 5900 5901 5901 5902 5902 5902 5902 5902 5903 5903 5903 5903 5904 5904 5904 5904 5904 5904 5904 5904 5904 5903 5903 5903 5903 5903 5904 5904 5904 5904 5904 5904 5904 5904 5904 5904 5905 5905 5905 5906 5906 5906 5906 5907 5907 5907
5894 5895 5895 5895 5896 5897 5896 5896 5896 5895 5894 5894 5894 5894 5894 5895 5896 5896 5896 5895 5895 5896 5896 5895 5895 5895 5895 5896 5896 5896 5896 5896 5897 5897 5897 5897 5897 5897 5898 5899 5899 5899 5900 5900 5900 5901 5901 5901 5901 5901 5901 5901 5902 5902 5903 5903 5903 5903 5903 5903 5903 5904 5904 5904 5905 5905 5905 5905 5905 5905 5905 5904 5904 5904 5904 5904 5904 5904 5904 5904 5904 5904 5905 5905 5905 5905 5905 5905 5906 5906 5906 5906 5907 5907 5907 5907 5907
5894 5895 5895 5896 5897 5898 5897 5897 5897 5895 5895 5895 5895 5895 5895 5896 5896 5896 5896 5896 5896 5896 5896 5895 5895 5895 5896 5896 5896 5896 5896 5897 5897 5898 5898 5898 5898 5898 5899 5899 5900 5900 5900 5900 5901 5901 5902 5902 5902 5902 5902 5902 5903 5903 5904 5904 5904 5904 5904 5904 5904 5904 5905 5905 5905 5906 5906 5906 5906 5906 5905 5905 5905 5905 5904 5904 5904 5905 5905 5904 5904 5905 5905 5905 5906 5906 5906 5906 5907 5907 5907 5907 5907 5908 5908 5908 5908
5894 5895 5895 5896 5897 5898 5897 5898 5897 5896 5897 5896 5896 5896 5896 5896 5896 5896 5896 5897 5896 5896 5896 5895 5896 5896 5897 5897 5897 5897 5897 5898 5898 5899 5899 5900 5900 5900 5900 5900 5900 5900 5901 5901 5902 5902 5902 5903 5903 5903 5903 5903 5904 5904 5904 5904 5904 5904 5905 5905 5905 5905 5906 5906 5906 5907 5907 5907 5906 5906 5906 5906 5906 5905 5905 5905 5905 5905 5905 5905 5905 5906 5906 5906 5907 5907 5907 5907 5907 5907 5907 5907 5907 5908 5908 5908 5908
5894 5895 5896 5896 5897 5897 5898 5899 5897 5896 5897 5897 5897 5897 5897 5897 5897 5896 5897 5897 5897 5896 5896 5895 5896 5897 5897 5898 5898 5899 5899 5899 5899 5900 5900 5901 5901 5901 5901 5901 5901 5901 5901 5902 5902 5903 5904 5904 5904 5904 5904 5904 5905 5905 5905 5905 5905 5905 5905 5905 5906 5906 5907 5907 5907 5907 5907 5907 5907 5907 5906 5906 5906 5906 5906 5906 5906 5906 5906 5906 5906 5907 5907 5907 5907 5908 5908 5908 5908 5908 5908 5908 5908 5908 5908 5908 5909
5894 5895 5896 5897 5897 5897 5899 5899 5897 5898 5898 5898 5897 5897 5897 5897 5897 5897 5898 5898 5898 5897 5896 5895 5896 5898 5899 5899 5899 5899 5900 5900 5900 5901 5901 5901 5902 5902 5902 5902 5901 5901 5902 5902 5903 5904 5904 5904 5904 5904 5904 5905 5905 5905 5905 5905 5906 5906 5906 5906 5907 5908 5908 5908 5908 5908 5908 5907 5907 5907 5907 5907 5907 5907 5907 5907 5907 5907 5907 5907 5907 5907 5908 5908 5908 5908 5908 5909 5909 5908 5909 5909 5909 5909 5909 5909 5910
5895 5895 5896 5897 5897 5897 5899 5899 5899 5900 5900 5899 5898 5898 5898 5898 5898 5899 5899 5899 5898 5898 5897 5897 5898 5898 5899 5899 5899 5900 5900 5901 5901 5901 5902 5902 5903 5904 5904 5903 5903 5902 5902 5904 5904 5905 5905 5905 5905 5904 5905 5905 5906 5905 5906 5906 5907 5907 5907 5907 5908 5909 5909 5909 5909 5909 5908 5908 5908 5908 5908 5908 5908 5907 5907 5907 5908 5908 5908 5908 5908 5908 5908 5909 5909 5909 5909 5909 5909 5909 5909 5910 5910 5911 5911 5911 5911
5895 5896 5897 5897 5898 5899 5899 5899 5900 5901 5900 5899 5899 5899 5899 5899 5900 5900 5900 5899 5899 5899 5898 5899 5899 5899 5899 5899 5899 5900 5900 5901 5901 5902 5902 5903 5904 5905 5905 5905 5904 5903 5903 5905 5905 5905 5906 5905 5905 5905 5906 5906 5906 5906 5907 5907 5907 5907 5908 5909 5910 5910 5910 5910 5910 5909 5909 5909 5908 5908 5908 5908 5908 5908 5908 5908 5908 5908 5908 5908 5908 5909 5909 5910 5910 5910 5910 5911 5910 5910 5910 5911 5911 5912 5912 5912 5912
5896 5897 5898 5897 5898 5899 5898 5899 5900 5900 5899 5899 5899 5899 5900 5900 5900 5901 5900 5901 5900 5900 5899 5900 5900 5899 5900 5900 5901 5901 5900 5901 5901 5902 5903 5903 5904 5905 5905 5905 5905 5904 5904 5905 5905 5906 5906 5906 5906 5906 5906 5906 5906 5907 5907 5908 5908 5908 5909 5910 5911 5911 5911 5910 5910 5910 5909 5909 5909 5909 5909 5909 5909 5909 5909 5909 5909 5909 5909 5909 5909 5910 5910 5911 5911 5911 5912 5912 5912 5911 5911 5911 5912 5912 5912 5913 5913
5896 5897 5898 5898 5898 5899 5898 5899 5900 5899 5899 5899 5899 5900 5900 5901 5901 5901 5901 5901 5901 5900 5900 5901 5901 5900 5900 5901 5901 5901 5901 5901 5902 5902 5903 5904 5905 5905 5905 5906 5906 5906 5905 5906 5906 5906 5906 5906 5906 5906 5906 5907 5907 5907 5908 5908 5908 5909 5910 5911 5912 5911 5911 5911 5911 5910 5910 5910 5910 5910 5910 5910 5910 5910 5910 5910 5910 5910 5910 5910 5911 5911 5911 5912 5912 5913 5913 5913 5913 5912 5912 5912 5912 5912 5913 5913 5914
5897 5897 5898 5899 5899 5898 5898 5900 5900 5899 5899 5899 5900 5900 5901 5901 5901 5901 5901 5901 5901 5901 5900 5900 5901 5900 5901 5901 5901 5901 5901 5902 5902 5902 5903 5904 5905 5905 5906 5906 5906 5906 5906 5906 5906 5906 5906 5906 5906 5906 5907 5907 5908 5908 5908 5909 5909 5910 5911 5912 5912 5912 5911 5911 5911 5911 5911 5912 5911 5911 5911 5911 5911 5911 5911 5911 5911 5911 5911 5912 5912 5912 5913 5913 5914 5914 5914 5914 5913 5913 5913 5913 5913 5913 5913 5914 5914
5897 5897 5897 5899 5899 5898 5899 5899 5899 5899 5899 5899 5900 5900 5901 5901 5901 5901 5902 5902 5901 5901 5900 5900 5901 5901 5902 5901 5901 5901 5902 5902 5902 5903 5903 5904 5905 5905 5906 5906 5906 5906 5906 5906 5907 5907 5907 5907 5906 5907 5908 5908 5908 5909 5909 5909 5910 5911 5912 5912 5912 5912 5912 5912 5912 5912 5913 5913 5913 5913 5912 5912 5912 5912 5912 5912 5912 5912 5913 5913 5914 5914 5914 5915 5915 5915 5915 5915 5914 5914 5914 5913 5913 5913 5914 5914 5915
5897 5897 5897 5899 5899 5898 5899 5899 5899 5899 5899 5899 5900 5900 5901 5901 5902 5902 5902 5902 5901 5901 5900 5900 5901 5901 5902 5901 5901 5902 5902 5902 5902 5903 5903 5904 5905 5905 5906 5906 5906 5906 5906 5906 5907 5907 5907 5907 5907 5908 5908 5909 5909 5909 5910 5910 5911 5912 5912 5912 5912 5912 5912 5913 5913 5914 5914 5914 5914 5914 5914 5914 5914 5914 5914 5914 5914 5914 5915 5915 5915 5916 5916 5916 5916 5916 5916 5916 5915 5915 5915 5915 5914 5914 5914 5915 5915
5896 5897 5897 5899 5899 5898 5899 5900 5899 5899 5899 5899 5900 5900 5901 5901 5902 5902 5902 5901 5901 5901 5900 5900 5900 5901 5901 5901 5901 5902 5903 5903 5903 5903 5904 5904 5905 5905 5906 5906 5906 5906 5907 5907 5907 5907 5907 5908 5908 5909 5909 5909 5910 5910 5910 5911 5912 5912 5913 5913 5913 5913 5913 5914 5914 5915 5915 5915 5915 5915 5915 5915 5915 5915 5915 5915 5916 5916 5916 5917 5917 5917 5918 5918 5918 5918 5918 5918 5917 5917 5916 5916 5916 5916 5916 5916 5916
5896 5897 5897 5898 5898 5897 5898 5900 5900 5899 5899 5899 5900 5900 5901 5901 5902 5902 5901 5901 5901 5901 5900 5900 5900 5901 5901 5901 5902 5902 5903 5903 5903 5904 5904 5904 5905 5906 5906 5906 5906 5907 5907 5907 5907 5907 5908 5908 5909 5909 5910 5910 5910 5910 5911 5912 5912 5913 5913 5913 5913 5914 5914 5915 5916 5916 5916 5917 5916 5916 5916 5916 5917 5917 5917 5917 5918 5918 5919 5919 5919 5919 5920 5920 5920 5920 5920 5920 5919 5919 5918 5918 5917 5917 5917 5917 5917
5896 5897 5897 5897 5898 5897 5897 5899 5900 5899 5899 5899 5900 5900 5900 5901 5901 5901 5901 5901 5901 5901 5901 5901 5901 5901 5902 5902 5902 5902 5903 5903 5904 5904 5904 5905 5905 5906 5907 5907 5907 5907 5907 5907 5908 5908 5908 5909 5909 5909 5910 5910 5910 5911 5912 5913 5913 5914 5914 5914 5914 5915 5916 5916 5917 5917 5917 5917 5917 5917 5918 5918 5918 5919 5919 5919 5920 5920 5921 5921 5921 5921 5922 5922 5922 5922 5922 5922 5921 5920 5920 5919 5919 5919 5919 5919 5918
5896 5897 5897 5898 5897 5897 5897 5898 5899 5899 5899 5899 5899 5900 5900 5900 5901 5901 5902 5902 5901 5901 5901 5901 5901 5902 5902 5902 5903 5902 5903 5903 5904 5904 5905 5905 5905 5906 5907 5907 5907 5907 5907 5907 5908 5908 5908 5909 5909 5909 5910 5910 5911 5912 5913 5913 5914 5914 5915 5915 5915 5916 5917 5918 5918 5918 5918 5918 5918 5919 5919 5920 5920 5921 5921 5921 5921 5922 5922 5923 5923 5923 5923 5923 5923 5923 5923 5923 5923 5922 5921 5921 5921 5921 5921 5921 5920
5895 5896 5897 5898 5897 5896 5896 5896 5898 5899 5899 5899 5899 5900 5900 5901 5901 5901 5902 5902 5902 5902 5901 5901 5901 5902 5902 5902 5903 5903 5903 5903 5904 5905 5905 5905 5905 5906 5907 5907 5907 5907 5908 5908 5908 5908 5909 5909 5910 5910 5911 5911 5912 5913 5914 5914 5915 5915 5915 5916 5916 5917 5918 5919 5919 5919 5919 5919 5919 5920 5920 5921 5922 5922 5923 5923 5923 5924 5924 5924 5924 5924 5924 5924 5924 5924 5924 5924 5924 5923 5923 5923 5923 5922 5922 5922 5921
5893 5895 5896 5897 5896 5895 5895 5896 5898 5898 5899 5899 5899 5900 5900 5901 5901 5901 5902 5902 5902 5902 5901 5901 5901 5902 5902 5902 5903 5903 5903 5903 5904 5905 5905 5905 5905 5906 5906 5907 5907 5908 5908 5908 5909 5909 5909 5910 5910 5911 5912 5912 5913 5914 5914 5915 5915 5916 5916 5917 5917 5918 5919 5920 5920 5920 5920 5920 5921 5921 5921 5922 5924 5924 5924 5924 5924 5925 5925 5925 5926 5926 5926 5925 5925 5925 5925 5925 5925 5925 5925 5925 5925 5924 5924 5923 5922
5893 5894 5895 5895 5895 5895 5895 5896 5897 5897 5898 5899 5899 5900 5900 5901 5901 5901 5902 5902 5902 5901 5901 5900 5901 5902 5902 5902 5903 5903 5903 5904 5904 5905 5905 5905 5905 5906 5906 5906 5907 5908 5908 5908 5909 5909 5910 5910 5911 5912 5912 5913 5914 5914 5915 5915 5916 5916 5917 5918 5918 5919 5920 5921 5921 5921 5921 5922 5922 5922 5923 5924 5925 5925 5925 5925 5926 5926 5926 5926 5927 5927 5927 5927 5926 5926 5927 5927 5927 5927 5926 5926 5927 5926 5925 5924 5923
5892 5893 5894 5894 5893 5895 5896 5896 5896 5897 5898 5898 5899 5900 5900 5900 5901 5901 5902 5902 5901 5900 5899 5899 5900 5901 5902 5902 5902 5903 5903 5903 5904 5904 5905 5905 5905 5905 5906 5906 5907 5907 5908 5908 5909 5910 5910 5911 5911 5912 5913 5913 5914 5915 5915 5916 5916 5917 5917 5918 5920 5920 5921 5922 5922 5922 5923 5923 5924 5924 5925 5926 5926 5926 5927 5927 5927 5927 5928 5928 5928 5928 5928 5928 5928 5929 5929 5929 5929 5929 5928 5927 5927 5927 5926 5925 5924
5892 5892 5894 5894 5893 5893 5894 5895 5896 5897 5898 5898 5899 5900 5900 5900 5901 5901 5901 5901 5900 5899 5898 5899 5900 5900 5901 5901 5902 5902 5903 5903 5904 5904 5904 5905 5905 5905 5905 5906 5907 5907 5907 5908 5909 5910 5910 5911 5911 5912 5913 5913 5914 5915 5916 5916 5917 5917 5918 5919 5921 5921 5922 5923 5923 5924 5924 5925 5925 5926 5927 5927 5927 5928 5928 5929 5929 5929 5929 5929 5929 5929 5929 5929 5930 5931 5930 5929 5929 5930 5930 5929 5928 5927 5927 5927 5926
5891 5892 5893 5893 5893 5893 5893 5895 5896 5897 5897 5898 5899 5899 5899 5900 5901 5901 5901 5900 5900 5899 5897 5898 5900 5899 5900 5901 5901 5901 5902 5902 5903 5903 5904 5904 5905 5905 5905 5906 5906 5906 5907 5908 5909 5909 5910 5911 5911 5912 5913 5914 5915 5915 5916 5917 5917 5918 5919 5920 5921 5922 5923 5924 5924 5925 5925 5926 5927 5927 5928 5928 5929 5929 5929 5930 5930 5930 5930 5931 5930 5930 5930 5931 5931 5932 5931 5930 5931 5931 5931 5930 5929 5928 5928 5928 5928
5891 5891 5892 5893 5893 5893 5893 5895 5896 5897 5897 5898 5898 5899 5900 5900 5900 5900 5901 5900 5900 5899 5897 5897 5899 5899 5900 5900 5899 5900 5901 5901 5902 5903 5904 5904 5904 5905 5905 5905 5906 5906 5907 5908 5908 5909 5910 5911 5912 5912 5913 5914 5915 5916 5917 5917 5918 5919 5920 5921 5922 5923 5924 5925 5926 5926 5927 5927 5928 5929 5929 5930 5930 5930 5931 5931 5931 5932 5932 5932 5931 5931 5931 5932 5932 5932 5931 5931 5932 5932 5931 5931 5931 5930 5930 5930 5930
5890 5891 5891 5892 5892 5893 5894 5895 5896 5897 5897 5898 5898 5899 5900 5900 5900 5900 5900 5900 5899 5899 5898 5897 5897 5898 5899 5898 5898 5899 5900 5901 5901 5902 5903 5903 5904 5904 5904 5905 5905 5905 5906 5907 5908 5909 5910 5911 5912 5913 5914 5915 5916 5916 5917 5918 5919 5920 5921 5922 5923 5924 5925 5926 5927 5928 5928 5929 5929 5930 5930 5931 5931 5932 5932 5932 5933 5933 5933 5933 5933 5932 5932 5933 5934 5933 5932 5932 5932 5932 5931 5931 5932 5932 5931 5932 5932
5888 5889 5890 5891 5892 5893 5894 5895 5895 5896 5897 5897 5898 5899 5899 5899 5900 5900 5899 5900 5899 5899 5898 5897 5897 5897 5897 5896 5896 5898 5899 5900 5901 5902 5902 5903 5903 5903 5904 5904 5904 5905 5906 5907 5908 5909 5910 5911 5912 5913 5914 5915 5916 5917 5918 5919 5920 5921 5922 5923 5924 5925 5926 5927 5928 5929 5929 5930 5931 5931 5932 5932 5932 5933 5933 5933 5934 5934 5934 5934 5934 5933 5933 5934 5934 5934 5934 5933 5932 5932 5932 5932 5933 5933 5932 5933 5933
5886 5887 5889 5890 5891 5892 5893 5894 5895 5895 5896 5897 5898 5899 5899 5899 5899 5900 5899 5899 5899 5898 5898 5898 5897 5897 5897 5896 5897 5897 5898 5900 5901 5901 5902 5902 5903 5903 5903 5903 5904 5905 5906 5907 5907 5909 5910 5911 5912 5913 5915 5916 5917 5918 5919 5920 5921 5922 5923 5924 5925 5926 5927 5928 5929 5929 5930 5931 5932 5932 5933 5933 5933 5934 5934 5934 5935 5935 5935 5935 5935 5934 5934 5934 5935 5935 5934 5934 5934 5934 5934 5933 5933 5933 5933 5934 5934
5885 5886 5887 5889 5891 5892 5893 5894 5894 5895 5895 5896 5897 5898 5898 5898 5899 5899 5899 5898 5898 5898 5898 5898 5898 5898 5897 5897 5897 5897 5897 5899 5899 5900 5901 5901 5902 5902 5903 5903 5904 5904 5905 5906 5907 5908 5910 5911 5912 5914 5915 5916 5917 5919 5920 5921 5922 5923 5924 5925 5926 5927 5928 5929 5929 5930 5931 5932 5932 5933 5933 5934 5934 5935 5935 5935 5936 5936 5936 5936 5936 5935 5935 5935 5935 5935 5935 5934 5935 5935 5935 5934 5934 5934 5934 5934 5935
5884 5885 5886 5888 5890 5891 5892 5893 5893 5894 5895 5895 5896 5897 5897 5897 5898 5898 5898 5898 5898 5898 5898 5898 5898 5898 5898 5897 5897 5896 5897 5898 5898 5899 5900 5901 5902 5902 5903 5903 5904 5904 5905 5906 5907 5908 5910 5911 5912 5914 5915 5917 5918 5919 5920 5921 5923 5924 5925 5926 5927 5928 5928 5929 5930 5931 5932 5932 5933 5934 5934 5935 5935 5936 5936 5936 5937 5937 5937 5937 5936 5936 5936 5936 5936 5935 5935 5935 5935 5935 5936 5935 5935 5935 5935 5935 5936
5882 5883 5884 5886 5888 5890 5891 5892 5892 5893 5894 5895 5896 5897 5897 5897 5897 5898 5898 5898 5898 5898 5897 5897 5897 5897 5897 5897 5897 5896 5896 5897 5898 5898 5899 5900 5901 5901 5902 5903 5903 5904 5905 5906 5907 5909 5910 5911 5913 5914 5916 5917 5918 5920 5921 5922 5923 5924 5926 5927 5927 5928 5929 5930 5931 5932 5932 5933 5934 5934 5935 5935 5936 5936 5937 5937 5937 5938 5938 5938 5937 5937 5937 5937 5937 5936 5936 5935 5936 5936 5936 5936 5936 5936 5936 5936 5936
5881 5882 5883 5885 5887 5889 5890 5891 5891 5892 5893 5894 5895 5896 5897 5897 5897 5897 5897 5897 5897 5897 5897 5897 5897 5896 5897 5897 5896 5895 5896 5897 5897 5897 5898 5899 5900 5901 5902 5903 5903 5904 5905 5906 5907 5909 5910 5911 5912 5914 5916 5917 5919 5920 5921 5922 5924 5925 5926 5927 5928 5929 5930 5931 5931 5932 5933 5934 5934 5935 5936 5936 5937 5937 5937 5938 5938 5938 5938 5938 5938 5938 5938 5938 5938 5937 5937 5936 5936 5936 5936 5936 5936 5936 5936 5937 5937
5879 5880 5881 5884 5886 5888 5889 5889 5890 5891 5892 5892 5894 5895 5897 5896 5895 5896 5896 5896 5897 5896 5896 5896 5896 5896 5896 5896 5895 5894 5895 5896 5896 5897 5898 5899 5899 5900 5901 5902 5903 5904 5905 5906 5907 5909 5910 5911 5913 5914 5915 5917 5918 5920 5921 5923 5924 5926 5927 5928 5929 5929 5930 5931 5932 5933 5933 5934 5935 5936 5936 5937 5938 5938 5938 5938 5939 5939 5939 5939 5939 5939 5939 5938 5938 5938 5937 5937 5937 5937 5936 5936 5936 5936 5936 5937 5937
5878 5879 5881 5883 5885 5887 5888 5888 5889 5890 5890 5891 5893 5894 5896 5894 5893 5894 5895 5895 5896 5896 5896 5896 5896 5895 5895 5896 5895 5894 5894 5894 5895 5896 5897 5898 5898 5899 5901 5902 5902 5903 5905 5906 5907 5909 5910 5912 5913 5914 5915 5917 5918 5920 5921 5923 5925 5926 5927 5928 5929 5930 5931 5932 5932 5933 5934 5935 5935 5936 5937 5938 5938 5938 5939 5939 5939 5939 5939 5939 5940 5940 5939 5939 5939 5938 5938 5937 5937 5937 5936 5936 5937 5936 5936 5937 5937
5876 5878 5880 5882 5884 5885 5886 5887 5887 5888 5889 5890 5892 5893 5894 5893 5892 5893 5894 5895 5895 5895 5895 5895 5895 5895 5895 5895 5895 5894 5893 5893 5894 5895 5896 5897 5898 5899 5900 5901 5902 5903 5905 5906 5907 5909 5910 5912 5913 5914 5915 5917 5918 5920 5921 5923 5925 5926 5927 5928 5929 5930 5931 5932 5933 5934 5934 5935 5936 5937 5937 5938 5939 5939 5939 5940 5940 5940 5940 5939 5940 5939 5939 5939 5939 5939 5938 5938 5937 5937 5937 5937 5937 5937 5937 5937 5937
5876 5877 5879 5881 5882 5883 5884 5885 5886 5887 5887 5889 5890 5891 5892 5892 5892 5893 5893 5894 5895 5895 5895 5895 5895 5894 5894 5894 5894 5894 5893 5892 5892 5893 5895 5896 5897 5898 5899 5901 5902 5903 5905 5906 5908 5909 5910 5912 5913 5914 5916 5917 5918 5920 5922 5923 5925 5926 5928 5929 5930 5931 5932 5932 5933 5934 5935 5935 5936 5937 5938 5939 5939 5940 5940 5940 5940 5940 5940 5940 5939 5939 5939 5939 5939 5939 5939 5938 5938 5938 5938 5938 5937 5937 5937 5937 5937
5875 5876 5878 5879 5881 5881 5882 5884 5885 5885 5886 5887 5888 5889 5890 5891 5892 5892 5892 5893 5894 5894 5894 5894 5895 5894 5893 5894 5894 5893 5893 5892 5891 5892 5894 5895 5897 5898 5899 5900 5902 5903 5904 5906 5908 5909 5910 5912 5913 5915 5916 5917 5918 5920 5921 5923 5925 5926 5928 5929 5930 5931 5932 5933 5934 5934 5935 5936 5937 5937 5938 5939 5940 5940 5940 5941 5941 5941 5941 5940 5940 5940 5940 5940 5940 5940 5939 5939 5939 5939 5938 5938 5938 5938 5938 5938 5937
5873 5874 5876 5877 5879 5880 5880 5881 5882 5883 5884 5885 5886 5888 5889 5889 5890 5891 5892 5892 5892 5893 5893 5893 5894 5893 5893 5893 5893 5893 5894 5893 5892 5892 5893 5894 5896 5897 5898 5900 5901 5903 5904 5906 5907 5909 5910 5911 5913 5914 5915 5917 5918 5919 5921 5923 5924 5926 5927 5928 5930 5931 5932 5933 5934 5935 5935 5936 5937 5938 5938 5939 5940 5940 5941 5941 5941 5941 5941 5941 5941 5941 5941 5941 5940 5940 5940 5940 5940 5940 5939 5939 5939 5939 5939 5938 5938
5870 5871 5873 5875 5877 5879 5879 5879 5881 5882 5882 5884 5884 5886 5887 5887 5888 5890 5891 5891 5891 5891 5891 5892 5892 5892 5893 5893 5892 5893 5894 5893 5891 5891 5892 5893 5895 5896 5898 5899 5900 5903 5904 5905 5907 5908 5909 5911 5913 5914 5915 5916 5917 5919 5921 5922 5924 5926 5927 5928 5930 5931 5932 5933 5934 5935 5935 5936 5937 5938 5939 5940 5940 5941 5941 5941 5941 5941 5941 5941 5941 5941 5941 5941 5941 5941 5941 5941 5941 5941 5940 5940 5940 5940 5939 5938 5938
5867 5868 5871 5873 5875 5878 5878 5877 5878 5879 5881 5882 5883 5883 5884 5885 5886 5887 5888 5889 5890 5890 5890 5890 5891 5891 5891 5891 5891 5892 5893 5891 5889 5890 5891 5893 5894 5895 5897 5898 5900 5901 5903 5905 5906 5908 5909 5911 5912 5914 5915 5916 5917 5918 5920 5922 5924 5925 5927 5928 5929 5931 5932 5933 5934 5934 5935 5936 5937 5938 5939 5940 5940 5941 5941 5942 5942 5942 5941 5941 5941 5941 5941 5941 5941 5941 5941 5941 5941 5941 5941 5940 5940 5940 5939 5939 5939
5863 5865 5868 5871 5874 5877 5877 5877 5877 5877 5880 5881 5880 5881 5882 5883 5883 5884 5885 5887 5888 5888 5889 5889 5889 5890 5889 5890 5890 5891 5892 5891 5889 5889 5891 5893 5894 5895 5896 5897 5899 5900 5902 5904 5906 5908 5909 5910 5912 5913 5914 5915 5916 5918 5920 5922 5923 5925 5927 5928 5929 5930 5931 5932 5933 5934 5934 5935 5936 5937 5939 5940 5941 5941 5942 5942 5942 5942 5942 5942 5941 5941 5941 5941 5941 5942 5942 5942 5941 5941 5941 5940 5940 5940 5939 5939 5939
5859 5862 5865 5868 5872 5873 5876 5878 5877 5876 5878 5878 5878 5879 5879 5880 5881 5882 5883 5886 5887 5886 5887 5888 5888 5888 5888 5889 5890 5890 5892 5890 5887 5888 5890 5892 5893 5894 5896 5897 5898 5900 5901 5904 5905 5907 5908 5910 5911 5912 5913 5914 5916 5917 5919 5921 5923 5924 5925 5927 5928 5929 5930 5931 5932 5933 5933 5935 5936 5937 5939 5940 5941 5942 5942 5943 5943 5943 5942 5942 5942 5942 5941 5941 5942 5942 5942 5942 5942 5942 5942 5941 5940 5940 5939 5939 5939
5856 5859 5862 5865 5868 5869 5872 5876 5876 5874 5874 5875 5876 5876 5877 5879 5880 5880 5882 5883 5884 5884 5884 5886 5886 5886 5885 5886 5887 5888 5888 5887 5886 5886 5888 5891 5893 5894 5895 5897 5898 5900 5901 5903 5904 5906 5907 5909 5910 5912 5913 5914 5915 5917 5919 5921 5922 5923 5924 5925 5927 5928 5928 5929 5931 5932 5933 5934 5936 5937 5939 5940 5941 5942 5942 5943 5943 5943 5942 5942 5942 5942 5942 5942 5942 5942 5942 5942 5942 5942 5942 5941 5941 5940 5940 5939 5939
5852 5856 5860 5862 5863 5864 5867 5870 5872 5872 5871 5872 5873 5872 5875 5877 5877 5878 5880 5881 5882 5881 5881 5884 5884 5885 5885 5883 5884 5885 5885 5886 5886 5884 5886 5891 5893 5894 5895 5896 5898 5899 5900 5902 5903 5905 5906 5908 5910 5911 5913 5914 5915 5917 5918 5920 5921 5922 5923 5924 5925 5926 5928 5929 5930 5932 5933 5934 5935 5936 5938 5939 5940 5941 5942 5942 5942 5942 5942 5942 5942 5942 5942 5942 5942 5942 5942 5942 5941 5942 5941 5941 5941 5940 5940 5940 5939
5849 5853 5856 5857 5859 5861 5863 5865 5867 5868 5868 5869 5870 5871 5873 5873 5874 5876 5877 5879 5880 5878 5878 5882 5882 5883 5884 5883 5882 5883 5883 5885 5884 5880 5883 5890 5892 5893 5894 5895 5896 5898 5899 5901 5903 5904 5906 5907 5909 5910 5912 5913 5914 5916 5917 5919 5920 5921 5922 5923 5925 5926 5927 5928 5930 5931 5932 5933 5934 5936 5937 5938 5939 5940 5941 5942 5942 5942 5942 5942 5942 5942 5942 5942 5942 5942 5942 5942 5941 5941 5941 5941 5941 5941 5940 5940 5940
5847 5850 5852 5854 5856 5858 5860 5861 5862 5864 5864 5864 5868 5870 5870 5870 5873 5875 5875 5875 5875 5874 5876 5879 5880 5881 5882 5882 5882 5881 5882 5883 5881 5879 5884 5890 5891 5891 5893 5894 5895 5897 5899 5901 5902 5903 5905 5906 5908 5910 5911 5913 5914 5915 5916 5918 5919 5920 5921 5923 5924 5925 5927 5928 5929 5930 5931 5932 5933 5935 5936 5937 5938 5940 5941 5941 5941 5942 5942 5942 5942 5941 5941 5941 5941 5942 5942 5942 5941 5941 5941 5941 5941 5941 5940 5940 5940
5846 5848 5850 5852 5853 5854 5856 5856 5859 5862 5859 5859 5864 5867 5867 5868 5870 5871 5871 5872 5871 5872 5875 5877 5877 5879 5881 5881 5881 5881 5881 5881 5880 5882 5887 5890 5890 5891 5891 5893 5895 5896 5898 5900 5901 5902 5904 5905 5907 5909 5911 5912 5913 5914 5915 5917 5918 5920 5921 5922 5924 5925 5926 5927 5928 5929 5930 5931 5932 5933 5935 5936 5938 5939 5940 5940 5941 5941 5941 5941 5941 5941 5941 5941 5941 5941 5941 5941 5941 5941 5941 5941 5941 5940 5940 5940 5940
5842 5844 5846 5847 5847 5850 5852 5854 5857 5857 5852 5855 5861 5863 5864 5864 5866 5868 5868 5869 5870 5871 5872 5874 5875 5877 5879 5880 5879 5880 5882 5882 5883 5885 5888 5890 5890 5890 5891 5893 5895 5896 5898 5899 5901 5902 5904 5905 5907 5908 5910 5911 5913 5914 5915 5916 5918 5919 5921 5922 5923 5925 5926 5926 5927 5928 5929 5930 5931 5933 5934 5935 5936 5937 5939 5939 5940 5940 5941 5941 5941 5941 5941 5941 5941 5941 5941 5941 5941 5941 5941 5941 5940 5940 5940 5940 5940
5837 5839 5840 5842 5845 5848 5849 5851 5852 5849 5846 5852 5858 5860 5861 5860 5862 5866 5867 5868 5869 5869 5870 5872 5874 5875 5878 5880 5878 5878 5880 5881 5883 5885 5887 5889 5890 5891 5892 5893 5894 5896 5897 5899 5901 5902 5904 5905 5906 5908 5909 5911 5912 5913 5914 5916 5917 5919 5920 5921 5923 5924 5925 5926 5927 5927 5928 5930 5931 5932 5933 5934 5935 5936 5937 5938 5939 5940 5940 5940 5940 5940 5940 5940 5940 5940 5940 5941 5940 5940 5940 5940 5940 5940 5940 5940 5940
5832 5834 5836 5838 5841 5843 5844 5845 5845 5844 5846 5851 5856 5857 5857 5857 5861 5864 5865 5866 5867 5867 5869 5870 5873 5874 5875 5876 5876 5877 5878 5879 5882 5885 5886 5887 5889 5891 5892 5892 5893 5895 5897 5898 5900 5901 5903 5905 5906 5908 5909 5911 5912 5913 5914 5915 5917 5918 5919 5921 5922 5923 5925 5925 5926 5927 5928 5929 5930 5931 5932 5933 5934 5935 5936 5937 5938 5939 5939 5940 5940 5940 5940 5940 5940 5940 5940 5940 5940 5940 5940 5940 5940 5940 5940 5940 5939
5828 5830 5832 5835 5837 5838 5839 5841 5842 5844 5846 5850 5853 5854 5854 5856 5859 5861 5863 5865 5865 5867 5868 5868 5872 5873 5871 5872 5874 5876 5877 5878 5880 5883 5885 5887 5889 5891 5891 5891 5892 5893 5895 5897 5898 5900 5902 5904 5906 5907 5909 5910 5911 5913 5914 5915 5916 5917 5918 5920 5921 5923 5924 5924 5925 5926 5927 5928 5929 5930 5931 5932 5933 5934 5935 5936 5937 5937 5938 5939 5939 5940 5940 5940 5939 5939 5939 5939 5939 5939 5940 5940 5940 5940 5940 5940 5939
5825 5828 5830 5833 5835 5836 5838 5840 5842 5844 5846 5849 5850 5851 5852 5854 5856 5858 5860 5862 5863 5865 5866 5866 5869 5870 5868 5870 5873 5875 5876 5877 5878 5880 5883 5886 5888 5889 5890 5891 5892 5892 5893 5895 5897 5899 5901 5902 5904 5906 5907 5909 5911 5912 5913 5915 5916 5916 5917 5919 5920 5922 5923 5924 5925 5926 5927 5928 5929 5929 5930 5931 5932 5933 5934 5935 5936 5936 5937 5938 5938 5939 5939 5939 5939 5939 5939 5939 5939 5939 5939 5939 5940 5940 5940 5940 5939
5823 5826 5827 5830 5834 5836 5838 5840 5841 5844 5846 5847 5847 5848 5851 5853 5853 5855 5858 5859 5860 5862 5864 5864 5866 5867 5868 5868 5871 5874 5875 5877 5877 5878 5882 5885 5887 5888 5889 5890 5891 5891 5892 5893 5895 5898 5900 5901 5903 5905 5906 5908 5909 5911 5912 5914 5915 5916 5917 5918 5920 5921 5922 5923 5924 5925 5926 5927 5928 5929 5930 5930 5931 5932 5933 5934 5935 5935 5936 5937 5937 5938 5938 5938 5938 5938 5938 5938 5938 5938 5938 5939 5939 5940 5940 5940 5939
5821 5822 5824 5830 5834 5835 5836 5838 5840 5841 5843 5844 5845 5846 5849 5850 5851 5853 5855 5856 5857 5859 5861 5862 5862 5864 5867 5867 5868 5872 5875 5876 5876 5876 5880 5884 5885 5887 5888 5890 5891 5891 5892 5894 5895 5897 5898 5900 5901 5903 5905 5907 5908 5910 5911 5912 5913 5915 5916 5917 5919 5920 5921 5923 5923 5924 5925 5926 5928 5929 5929 5930 5931 5932 5932 5933 5934 5935 5935 5936 5936 5937 5937 5937 5938 5938 5938 5938 5937 5937 5937 5938 5938 5939 5939 5939 5939
5816 5818 5824 5829 5830 5830 5832 5835 5836 5838 5839 5842 5844 5845 5846 5847 5849 5851 5852 5853 5854 5856 5857 5859 5859 5861 5864 5866 5867 5870 5874 5875 5874 5875 5879 5882 5884 5885 5887 5889 5890 5891 5892 5894 5894 5895 5896 5898 5900 5902 5904 5906 5908 5909 5910 5911 5913 5914 5915 5917 5918 5919 5920 5921 5922 5923 5925 5926 5927 5928 5929 5930 5931 5931 5932 5932 5933 5934 5934 5935 5935 5936 5936 5936 5937 5937 5937 5937 5937 5937 5937 5937 5937 5938 5938 5938 5938
5812 5816 5821 5822 5823 5826 5828 5831 5833 5835 5836 5839 5842 5844 5845 5846 5848 5849 5850 5851 5851 5853 5854 5855 5857 5859 5861 5865 5866 5867 5871 5873 5873 5874 5876 5880 5883 5885 5886 5888 5890 5891 5892 5893 5893 5894 5896 5897 5899 5901 5903 5905 5906 5908 5909 5911 5912 5913 5915 5916 5917 5919 5920 5921 5922 5923 5924 5925 5926 5927 5928 5929 5930 5931 5931 5931 5932 5933 5933 5934 5934 5935 5935 5935 5935 5936 5936 5936 5936 5936 5936 5936 5936 5937 5937 5937 5938
5808 5811 5813 5815 5819 5822 5825 5827 5831 5833 5835 5838 5841 5842 5843 5845 5846 5847 5848 5849 5850 5851 5852 5852 5855 5857 5859 5863 5864 5865 5868 5870 5872 5873 5874 5878 5882 5883 5885 5887 5888 5890 5891 5892 5893 5894 5896 5897 5899 5900 5902 5904 5905 5907 5909 5910 5911 5913 5914 5915 5917 5918 5919 5920 5921 5922 5923 5924 5925 5926 5927 5928 5929 5930 5930 5931 5931 5931 5932 5932 5933 5933 5933 5934 5934 5934 5934 5935 5935 5935 5935 5935 5935 5935 5936 5936 5936
5803 5805 5806 5810 5814 5817 5821 5824 5827 5830 5833 5836 5839 5842 5844 5843 5843 5844 5846 5847 5848 5849 5850 5851 5853 5855 5857 5860 5861 5863 5866 5869 5871 5871 5872 5876 5880 5882 5883 5885 5886 5888 5889 5891 5892 5894 5895 5896 5898 5899 5901 5903 5905 5906 5908 5909 5911 5912 5913 5914 5915 5916 5917 5918 5920 5921 5922 5922 5923 5924 5925 5926 5927 5928 5929 5929 5930 5930 5930 5930 5931 5931 5932 5932 5932 5932 5933 5933 5933 5933 5933 5933 5934 5934 5934 5935 5935
5800 5802 5804 5807 5810 5814 5817 5818 5822 5826 5830 5833 5836 5841 5843 5839 5838 5842 5844 5845 5846 5847 5848 5849 5851 5853 5856 5859 5859 5861 5865 5867 5867 5867 5869 5873 5877 5879 5881 5883 5885 5887 5889 5890 5891 5892 5894 5895 5897 5898 5900 5902 5904 5905 5907 5908 5909 5911 5912 5913 5914 5915 5916 5917 5918 5919 5920 5921 5921 5922 5923 5924 5925 5926 5926 5927 5928 5928 5928 5928 5928 5929 5929 5930 5930 5931 5931 5931 5932 5931 5932 5932 5932 5932 5933 5933 5933